軌道要素
Epoch 2004 June 4.0 TT = JDT 2453160.5
T 2004 June 7.78609 TT Muraoka
q 2.6229745 (2000.0) P Q
n 0.13341101 Peri. 334.26072 +0.96792487 -0.24952315
a 3.7932221 Node 40.22407 +0.23764005 +0.87140041
e 0.3085102 Incl. 2.60223 +0.08153925 +0.42237367
P 7.39
From 122 observations 1996 Sept. 11-1997 Jan. 12, mean residual 0".66.
dP = +/- 0.28 day
|